Total_Precipitation_Accumulation
0.17 0.20 0.22 0.25 0.24 0.23 0.27 0.34 0.40 0.49 0.60 0.82 1.14 1.57 1.78 1.89 1.90 1.92 1.83 1.63 1.41 1.40 1.51 1.44 1.36 1.28 1.21 1.06 0.85 0.84 0.72 0.49 0.30 0.34 0.34 0.24 0.13 0.10 0.09 0.07 0.07 0.08 0.08
0.12 0.11 0.13 0.15 0.14 0.14 0.17 0.26 0.32 0.42 0.55 0.81 1.13 1.48 1.83 1.91 1.92 1.91 1.87 1.75 1.63 1.63 1.65 1.79 1.83 1.74 1.74 1.65 1.35 1.33 1.24 0.89 0.58 0.68 0.85 0.63 0.42 0.22 0.14 0.12 0.11 0.10 0.11
0.11 0.09 0.08 0.09 0.10 0.11 0.12 0.18 0.24 0.38 0.66 0.99 1.30 1.49 1.78 1.90 1.95 1.89 1.90 1.94 1.89 1.79 1.79 1.88 1.98 1.95 1.93 1.92 1.88 1.71 1.68 1.42 0.99 0.78 0.91 0.85 0.74 0.53 0.24 0.17 0.19 0.18 0.17
0.14 0.12 0.09 0.07 0.08 0.09 0.11 0.14 0.20 0.39 0.73 1.07 1.33 1.55 1.90 2.00 1.91 1.95 1.97 2.00 2.02 1.97 2.01 2.02 2.08 2.06 2.01 2.02 2.01 1.84 1.83 1.81 1.43 1.12 0.87 0.74 0.71 0.67 0.49 0.30 0.24 0.25 0.21
0.15 0.12 0.10 0.09 0.10 0.10 0.13 0.19 0.32 0.51 0.76 0.97 1.22 1.57 1.81 1.91 2.00 1.96 1.99 1.99 2.03 2.03 2.05 2.10 2.22 2.19 2.09 2.03 2.15 2.08 2.01 1.89 1.78 1.56 1.33 1.15 0.96 0.67 0.66 0.62 0.44 0.33 0.25
0.16 0.16 0.15 0.15 0.16 0.18 0.24 0.32 0.47 0.62 0.82 0.98 1.18 1.37 1.61 1.74 1.89 1.99 1.92 1.90 1.93 2.00 1.88 1.83 1.94 1.97 1.98 1.96 2.05 2.12 2.15 2.05 2.03 1.83 1.49 1.35 1.18 0.95 0.89 0.77 0.62 0.52 0.34
0.26 0.30 0.31 0.34 0.41 0.44 0.47 0.55 0.64 0.75 0.85 0.95 1.03 1.09 1.26 1.41 1.46 1.60 1.69 1.79 1.81 1.85 1.84 1.74 1.71 1.69 1.64 1.66 1.74 1.78 1.77 1.84 1.92 1.78 1.53 1.44 1.22 1.09 1.04 0.92 0.77 0.63 0.39
0.43 0.53 0.61 0.69 0.76 0.75 0.74 0.80 0.85 0.83 0.81 0.86 0.92 0.94 1.00 1.07 1.13 1.16 1.20 1.36 1.52 1.56 1.62 1.60 1.51 1.52 1.57 1.56 1.60 1.61 1.59 1.53 1.55 1.55 1.53 1.51 1.34 1.18 1.06 1.01 1.05 0.90 0.71
0.71 0.81 0.91 0.92 0.93 0.90 0.85 0.85 0.88 0.85 0.83 0.82 0.82 0.78 0.75 0.79 0.88 0.90 0.96 1.01 1.11 1.13 1.19 1.27 1.29 1.32 1.39 1.44 1.55 1.59 1.58 1.47 1.41 1.47 1.49 1.40 1.30 1.20 1.07 1.00 0.98 0.99 0.90
1.06 1.19 1.27 1.17 1.10 1.09 1.13 1.01 0.92 0.85 0.81 0.81 0.80 0.74 0.68 0.70 0.72 0.73 0.81 0.79 0.78 0.78 0.83 0.93 1.04 1.16 1.27 1.37 1.44 1.46 1.53 1.50 1.44 1.46 1.52 1.53 1.47 1.42 1.30 1.15 1.06 0.95 0.92
1.43 1.52 1.53 1.43 1.23 1.10 1.09 1.03 0.92 0.81 0.71 0.70 0.74 0.73 0.66 0.66 0.67 0.65 0.62 0.58 0.59 0.63 0.71 0.74 0.84 0.92 1.00 1.18 1.35 1.39 1.41 1.41 1.37 1.33 1.38 1.48 1.53 1.56 1.50 1.41 1.24 1.08 1.02
1.30 1.34 1.30 1.29 1.18 1.08 0.99 0.95 0.84 0.71 0.65 0.69 0.70 0.72 0.62 0.56 0.58 0.56 0.56 0.51 0.49 0.51 0.56 0.65 0.77 0.85 0.85 0.88 1.01 1.07 1.08 1.11 1.15 1.12 1.11 1.19 1.27 1.36 1.44 1.43 1.36 1.29 1.16
0.98 1.07 1.13 1.04 1.00 0.92 0.87 0.94 0.94 0.83 0.81 0.84 0.89 0.81 0.67 0.62 0.59 0.54 0.53 0.49 0.49 0.52 0.55 0.62 0.72 0.77 0.74 0.74 0.74 0.75 0.81 0.85 0.86 0.87 0.85 0.86 0.96 1.10 1.21 1.28 1.29 1.31 1.30
0.78 0.84 0.92 0.88 0.89 0.83 0.80 0.89 0.93 0.95 1.02 1.10 1.06 0.88 0.76 0.68 0.60 0.53 0.48 0.47 0.50 0.53 0.58 0.69 0.73 0.74 0.67 0.68 0.69 0.68 0.66 0.65 0.63 0.65 0.64 0.65 0.67 0.75 0.88 1.04 1.19 1.28 1.31
0.56 0.55 0.55 0.56 0.63 0.63 0.60 0.64 0.71 0.82 0.98 1.05 0.94 0.79 0.67 0.57 0.51 0.52 0.48 0.47 0.51 0.52 0.57 0.60 0.67 0.71 0.68 0.67 0.69 0.66 0.57 0.54 0.55 0.52 0.45 0.44 0.47 0.48 0.53 0.60 0.81 1.02 1.15
0.33 0.31 0.28 0.28 0.33 0.33 0.35 0.39 0.47 0.62 0.84 0.93 0.80 0.63 0.56 0.52 0.48 0.46 0.42 0.40 0.40 0.42 0.47 0.49 0.61 0.70 0.65 0.76 0.70 0.58 0.49 0.48 0.48 0.44 0.41 0.40 0.41 0.36 0.30 0.31 0.43 0.63 0.82
0.23 0.24 0.22 0.20 0.20 0.20 0.23 0.30 0.36 0.50 0.60 0.62 0.57 0.47 0.41 0.39 0.38 0.37 0.37 0.38 0.40 0.41 0.44 0.46 0.55 0.64 0.75 0.69 0.51 0.49 0.47 0.48 0.49 0.50 0.52 0.47 0.42 0.47 0.36 0.30 0.30 0.34 0.41
0.21 0.21 0.21 0.20 0.21 0.22 0.23 0.32 0.37 0.39 0.44 0.52 0.50 0.43 0.38 0.35 0.35 0.33 0.35 0.43 0.43 0.41 0.44 0.47 0.48 0.56 0.66 0.55 0.40 0.42 0.39 0.48 0.54 0.55 0.60 0.63 0.59 0.53 0.53 0.47 0.49 0.46 0.39
0.13 0.13 0.13 0.12 0.12 0.12 0.11 0.13 0.17 0.22 0.27 0.30 0.35 0.34 0.29 0.30 0.33 0.33 0.38 0.42 0.42 0.46 0.46 0.47 0.48 0.52 0.55 0.48 0.38 0.39 0.46 0.58 0.59 0.54 0.61 0.65 0.60 0.62 0.61 0.66 0.73 0.66 0.53
0.03 0.03 0.03 0.03 0.03 0.02 0.03 0.04 0.05 0.06 0.09 0.10 0.14 0.18 0.19 0.22 0.28 0.37 0.43 0.41 0.39 0.43 0.44 0.42 0.40 0.43 0.44 0.47 0.36 0.45 0.57 0.61 0.61 0.60 0.64 0.79 0.70 0.66 0.59 0.58 0.69 0.71 0.60
0.00 0.00 0.00 0.01 0.01 0.01 0.01 0.02 0.02 0.02 0.02 0.02 0.04 0.07 0.11 0.17 0.25 0.32 0.31 0.31 0.34 0.37 0.38 0.42 0.41 0.41 0.46 0.54 0.54 0.59 0.60 0.63 0.67 0.74 0.79 0.74 0.78 0.59 0.52 0.50 0.47 0.53 0.53
0.00 0.00 0.00 0.00 0.00 0.00 0.00 0.00 0.00 0.00 0.00 0.00 0.01 0.02 0.04 0.07 0.12 0.20 0.23 0.26 0.29 0.30 0.30 0.32 0.33 0.36 0.46 0.52 0.53 0.55 0.58 0.63 0.63 0.68 0.67 0.62 0.67 0.50 0.41 0.35 0.37 0.36 0.35
0.00 0.00 0.00 0.00 0.00 0.00 0.00 0.00 0.00 0.00 0.00 0.00 0.00 0.00 0.01 0.02 0.06 0.12 0.17 0.21 0.27 0.29 0.27 0.26 0.28 0.31 0.35 0.41 0.43 0.43 0.42 0.43 0.45 0.43 0.50 0.50 0.45 0.39 0.31 0.32 0.33 0.31 0.32
0.00 0.00 0.00 0.00 0.00 0.00 0.00 0.00 0.00 0.00 0.00 0.00 0.00 0.00 0.01 0.01 0.03 0.06 0.13 0.21 0.24 0.23 0.23 0.25 0.27 0.31 0.33 0.33 0.33 0.37 0.37 0.34 0.35 0.34 0.35 0.33 0.31 0.33 0.32 0.31 0.32 0.32 0.34
0.00 0.00 0.00 0.00 0.00 0.00 0.00 0.00 0.00 0.00 0.00 0.00 0.00 0.00 0.00 0.01 0.02 0.02 0.06 0.13 0.15 0.14 0.18 0.23 0.27 0.31 0.34 0.30 0.27 0.27 0.32 0.37 0.41 0.45 0.38 0.32 0.30 0.31 0.36 0.36 0.31 0.32 0.34
0.00 0.00 0.00 0.00 0.00 0.00 0.00 0.00 0.00 0.00 0.00 0.00 0.00 0.00 0.00 0.01 0.01 0.02 0.03 0.05 0.05 0.07 0.08 0.09 0.13 0.13 0.13 0.13 0.13 0.16 0.21 0.27 0.33 0.45 0.50 0.50 0.53 0.53 0.52 0.48 0.37 0.31 0.29